Home > Weather > Breckenridge > Past weeks

Flag for U.S.A. Weather for the Past 2 Weeks in Breckenridge, Colorado, U.S.A.

Now
34 °F

Sunny.


Feels Like: 24 °F
Forecast: 20 / 46 °F
Wind: 15 mph from Northwest

Location: Copper Mountain - Red Cliff Pass

Current Time: Feb 11, 2016 at 11:01:03 AM

Latest Report: Feb 11, 2016 at 10:36 AM


Visibility: 10 mi

Pressure: 30.49 "Hg (21.19 "Hg at 2921m altitude)

Humidity: 23%

Dew point: 0 °F

Location of BreckenridgeLocation

Historic Weather in Breckenridge — Graph

°F

Breckenridge Temperature Yesterday

Maximum temperature yesterday: 37 °F (at 11:56 AM)
Minimum temperature yesterday: 27 °F (at 12:16 AM)
Average temperature yesterday: 31 °F

High & Low Weather Summary for the Past Weeks

 TemperatureHumidityPressure
High37 °F (Feb 10, 11:56 AM)86% (Jan 30, 10:36 PM)30.56 "Hg (Jan 30, 10:36 PM)
Low-6 °F (Feb 3, 7:36 AM)12% (Feb 10, 3:16 AM)29.32 "Hg (Feb 1, 1:56 PM)
Average19 °F61%30.11 "Hg
* Reported Jan 27 9:15 AM — Feb 11 9:56 AM, Breckenridge, Weather by CustomWeather, © 2016

Note: Actual official high and low records may vary slightly from our data, if they occured in-between our weather recording intervals... More about our weather records

Advertising

Breckenridge Weather History for the Previous 24 Hours

 ConditionsComfort  
Time TempWeatherWind HumidityBarometerVisibility
9:56 AM
Thu, Feb 11
30 °FSunny.6 mph31%30.49 "Hg10 mi
9:36 AM30 °FSunny.8 mph29%30.47 "Hg10 mi
9:16 AM30 °FSunny.15 mph29%30.47 "Hg10 mi
8:56 AM30 °FSunny.15 mph29%30.47 "Hg10 mi
8:36 AM28 °FSunny.22 mph31%30.46 "Hg10 mi
8:16 AM28 °FSunny.17 mph29%30.46 "Hg10 mi
7:56 AM27 °FSunny.13 mph33%30.46 "Hg10 mi
7:36 AM27 °FSunny.12 mph31%30.46 "Hg10 mi
7:16 AM27 °FSunny.14 mph31%30.46 "Hg10 mi
6:56 AM27 °FClear.8 mph31%30.46 "Hg10 mi
6:36 AM27 °FClear.13 mph33%30.45 "Hg10 mi
6:16 AM27 °FClear.13 mph33%30.45 "Hg10 mi
5:56 AM27 °FClear.10 mph33%30.46 "Hg10 mi
5:36 AM25 °FClear.10 mph36%30.45 "Hg10 mi
5:16 AM27 °FClear.13 mph31%30.44 "Hg10 mi
4:56 AM27 °FClear.9 mph31%30.44 "Hg10 mi
4:36 AM27 °FClear.13 mph31%30.43 "Hg10 mi
4:16 AM23 °FClear.9 mph42%30.43 "Hg10 mi
3:56 AM25 °FClear.12 mph39%30.43 "Hg10 mi
3:36 AM25 °FClear.12 mph36%30.44 "Hg10 mi
3:16 AM25 °FClear.10 mph36%30.44 "Hg10 mi
2:56 AM27 °FClear.10 mph33%30.44 "Hg10 mi
2:36 AM27 °FClear.9 mph33%30.44 "Hg10 mi
2:16 AM27 °FClear.9 mph33%30.44 "Hg10 mi
1:56 AM25 °FClear.9 mph36%30.44 "Hg10 mi
1:36 AM25 °FClear.13 mph36%30.44 "Hg10 mi
1:16 AM25 °FClear.12 mph36%30.44 "Hg10 mi
12:56 AM25 °FClear.12 mph36%30.45 "Hg10 mi
12:36 AM27 °FClear.13 mph31%30.45 "Hg10 mi
12:16 AM27 °FClear.12 mph31%30.45 "Hg10 mi
11:56 PM
Wed, Feb 10
27 °FClear.13 mph31%30.45 "Hg10 mi
11:36 PM27 °FClear.12 mph31%30.46 "Hg10 mi
11:16 PM27 °FClear.12 mph31%30.46 "Hg10 mi
10:55 PM27 °FClear.6 mph31%30.46 "Hg10 mi
10:36 PM27 °FClear.13 mph31%30.46 "Hg10 mi
10:16 PM27 °FClear.9 mph31%30.46 "Hg10 mi
9:56 PM27 °FClear.10 mph33%30.46 "Hg10 mi
9:36 PM27 °FClear.9 mph31%30.46 "Hg10 mi
5:33 PM32 °FSunny.17 mph21%30.42 "Hg10 mi
4:49 PM34 °FSunny.21 mph18%30.43 "Hg10 mi
4:16 PM36 °FSunny.25 mph16%30.43 "Hg10 mi
3:56 PM36 °FSunny.30 mph16%30.43 "Hg10 mi
3:36 PM36 °FSunny.28 mph18%30.42 "Hg10 mi
2:36 PM37 °FSunny.26 mph17%30.43 "Hg10 mi
2:16 PM37 °FSunny.24 mph14%30.43 "Hg10 mi
1:56 PM37 °FSunny.31 mph14%30.43 "Hg10 mi
1:36 PM37 °FSunny.26 mph14%30.45 "Hg10 mi
1:16 PM37 °FSunny.26 mph17%30.46 "Hg7 mi
12:56 PM37 °FSunny.29 mph15%30.47 "Hg10 mi
12:36 PM37 °FSunny.28 mph14%30.48 "Hg10 mi
12:16 PM37 °FSunny.21 mph17%30.49 "Hg10 mi
11:56 AM37 °FSunny.20 mph20%30.50 "Hg10 mi
11:36 AM36 °FSunny.15 mph20%30.50 "Hg10 mi
11:16 AM36 °FSunny.17 mph18%30.51 "Hg10 mi
Weather by CustomWeather, © 2016

See weather overviewHow to use our weather pages